CAPE
1 1 2 1 1 2 1 2 1 3 3 4 3 2 0 0 0 0 0 0 0 0 0 0 0 0 0 0 0 0 0 0 0 0 0 0 1 1 0 0 0 0 0 0 0
0 0 0 0 2 0 1 2 1 2 2 2 3 2 0 0 0 0 0 0 0 0 0 0 0 0 0 0 0 0 0 0 0 0 0 0 0 0 0 0 0 0 0 0 0
0 0 0 0 0 0 1 2 1 2 1 1 1 1 1 0 0 0 0 0 0 0 0 0 0 0 0 0 0 0 0 0 0 0 0 0 0 0 0 0 0 0 0 0 0
0 0 0 0 0 0 0 1 1 1 1 1 1 1 1 0 0 0 0 0 0 0 0 0 0 0 0 0 0 0 0 0 0 0 1 0 0 0 0 0 0 0 0 0 0
0 0 0 0 0 0 0 0 0 1 1 1 0 2 0 0 0 0 0 0 0 0 0 0 0 0 0 0 0 0 0 0 0 0 0 0 0 0 0 0 0 0 0 0 0
0 0 0 0 0 0 0 0 0 1 2 2 1 1 0 0 0 0 0 0 0 0 0 0 0 0 0 0 0 0 0 0 0 0 0 0 0 0 0 0 0 0 0 0 0
0 0 0 0 0 0 0 0 0 0 1 3 2 0 0 0 0 0 0 0 0 0 0 0 0 0 0 0 0 0 0 0 0 0 0 0 0 0 0 0 0 0 0 0 0
0 0 0 0 0 0 0 0 0 2 1 2 2 0 0 0 0 0 0 0 0 0 0 0 0 0 0 0 0 0 0 0 0 0 0 0 0 0 0 0 0 0 0 0 0
0 0 0 0 0 0 0 0 0 0 1 1 0 0 0 0 0 0 0 0 0 0 0 0 0 0 0 0 0 0 0 0 0 0 0 0 0 0 0 0 0 0 0 0 0
0 0 0 0 0 0 1 0 0 0 0 0 0 0 0 0 0 0 0 0 0 0 0 0 0 0 0 0 0 0 0 0 0 0 0 0 0 0 0 0 0 0 0 0 0
0 0 0 0 0 1 1 0 0 0 0 0 0 0 0 0 0 0 0 0 0 0 0 0 0 0 0 0 0 0 0 0 1 0 0 0 0 0 0 0 0 0 0 0 0
0 0 0 0 1 4 4 0 0 0 0 0 0 0 0 0 0 0 0 0 0 0 0 0 0 0 0 0 0 0 0 0 0 0 0 0 0 0 0 0 0 0 0 0 0
0 0 0 0 0 0 0 0 0 0 0 0 0 0 0 0 0 0 0 0 0 0 0 0 0 0 0 0 0 0 0 0 0 0 1 0 0 0 0 0 0 0 0 0 0
0 0 0 0 0 0 0 0 0 0 0 0 0 0 0 0 0 0 0 0 0 0 0 0 0 0 0 0 0 0 0 0 0 0 0 0 0 0 0 0 0 0 0 0 0
0 0 0 0 0 0 0 0 0 0 6 0 0 0 0 0 0 0 0 0 0 0 0 0 0 0 0 0 0 0 1 0 0 0 0 0 0 0 0 0 0 0 0 0 0
0 0 0 0 0 0 0 0 0 1 4 1 0 0 0 0 0 0 0 0 0 0 0 0 0 0 0 0 1 0 0 0 0 0 0 0 0 0 0 0 0 0 0 0 0
0 0 0 0 0 0 0 0 1 40 0 11 3 0 0 0 0 0 0 0 0 0 0 0 0 0 0 1 0 0 0 0 1 9 0 0 0 1 0 0 0 0 0 0 0
0 0 0 0 0 0 0 0 17 12 19 1 0 9 23 21 3 3 9 10 1 0 3 2 0 5 4 10 1 1 2 24 17 3 0 0 0 0 0 0 0 0 0 0 0
0 0 0 0 0 0 0 0 19 2 0 0 0 2 2 33 11 19 27 17 15 7 7 14 0 0 0 0 0 0 0 0 0 0 4 0 0 0 0 0 0 0 0 0 0
0 0 0 0 0 0 0 4 20 0 0 0 0 11 7 26 38 42 25 14 0 8 4 2 0 0 0 0 0 0 0 0 0 2 3 0 0 0 0 0 0 0 0 0 0
0 0 0 0 0 0 9 3 12 0 0 0 3 3 11 7 5 21 23 24 0 10 1 1 1 0 0 0 0 0 1 0 2 0 0 0 0 0 0 0 0 0 0 0 0
0 0 0 0 0 14 37 1 0 0 0 3 0 7 7 8 4 17 14 26 1 1 10 2 6 0 0 0 0 1 0 1 1 2 24 21 1 0 0 0 0 0 7 4 5
0 0 0 0 0 4 0 0 0 0 2 2 1 3 12 7 8 10 8 3 3 1 1 11 8 13 0 0 0 0 0 0 0 0 0 1 0 0 2 4 4 5 1 0 0
0 0 1 0 0 0 0 0 1 1 0 1 3 4 6 5 16 10 18 12 5 0 0 0 0 0 3 0 0 0 13 4 0 0 0 4 3 3 2 7 4 0 0 0 0
0 0 0 0 3 0 0 0 0 7 1 1 2 6 9 12 12 19 11 0 13 4 0 0 1 2 4 1 0 1 2 0 0 0 1 0 0 0 13 0 0 0 0 0 0
0 0 0 0 0 0 0 5 1 2 0 0 3 1 1 8 10 0 0 4 10 1 4 9 1 11 7 6 0 0 0 0 0 0 0 0 10 4 0 0 0 0 0 0 0
0 5 1 0 0 0 2 0 0 5 1 1 1 0 3 6 3 1 1 3 2 2 14 12 15 13 1 9 0 0 6 8 19 16 2 0 0 0 0 0 0 0 0 0 0
CIN
0 0 0 0 0 0 0 0 0 0 0 0 0 0 0 0 0 0 0 0 0 0 0 0 0 0 0 0 0 0 0 0 0 0 0 0 -6 -1 0 0 0 0 0 0 0
0 0 0 0 0 0 0 0 0 0 0 0 0 0 0 0 0 0 0 0 0 0 0 0 0 0 0 0 0 0 0 0 0 0 0 0 0 0 0 0 0 0 0 0 0
0 0 0 0 0 0 0 0 0 0 0 0 0 0 0 0 0 0 0 0 0 0 0 0 0 0 0 0 0 0 0 0 0 0 0 0 0 0 0 0 0 0 0 0 0
0 0 0 0 0 0 0 0 0 0 0 0 0 0 0 0 0 0 0 0 0 0 0 0 0 0 0 0 0 0 0 0 0 0 -11 0 0 0 0 0 0 0 0 0 0
0 0 0 0 0 0 0 0 0 0 0 0 0 0 0 0 0 0 0 0 0 0 0 0 0 0 0 0 0 0 0 0 0 0 0 0 0 0 0 0 0 0 0 0 0
0 0 0 0 0 0 0 0 0 0 0 0 0 0 0 0 0 0 0 0 0 0 0 0 0 0 0 -1 0 0 0 0 0 0 0 0 0 0 0 0 0 0 0 0 0
0 0 0 0 0 0 0 0 0 0 0 0 0 0 0 0 0 0 0 0 0 0 0 0 0 0 0 0 0 0 0 0 0 0 0 0 0 0 0 0 0 0 0 0 0
0 0 0 0 0 0 0 0 0 0 0 0 0 0 0 0 0 0 0 0 0 0 0 0 0 0 0 0 0 0 0 0 0 0 0 0 0 0 0 0 0 0 0 0 0
0 0 0 0 0 0 0 0 0 0 0 0 0 0 0 0 0 0 0 0 0 0 0 0 0 0 0 0 0 0 0 0 0 0 0 0 0 0 0 0 0 0 0 0 0
0 0 0 0 0 0 0 0 0 0 0 0 0 0 0 0 0 0 0 0 0 0 0 0 0 0 0 0 0 0 0 0 0 0 0 0 0 0 0 0 0 0 0 0 0
0 0 0 0 0 0 0 0 0 0 0 0 0 0 0 0 0 0 0 0 0 0 0 0 0 0 0 0 0 0 0 0 -5 0 0 0 0 0 0 0 0 0 0 0 0
0 0 0 0 0 0 0 0 0 0 0 0 0 0 0 0 0 0 0 0 0 0 0 0 0 0 0 0 0 0 0 0 0 0 0 0 0 0 0 0 0 0 0 0 0
0 0 0 0 0 0 0 0 0 0 0 0 0 0 0 0 0 0 0 0 0 0 0 0 0 -2 0 0 0 0 0 0 0 0 -3 0 0 0 0 0 0 0 0 0 0
0 0 0 0 0 0 0 0 0 0 0 0 0 0 0 0 0 0 0 0 0 0 0 0 0 0 0 0 0 0 0 0 0 0 0 0 0 0 0 0 0 0 0 0 0
0 0 0 0 0 0 0 0 0 0 -10 0 0 0 0 0 0 0 0 0 0 0 0 0 0 0 0 0 0 0 -5 0 0 0 0 0 0 0 0 -1 0 0 0 0 0
0 0 0 0 0 0 0 0 0 0 -10 -3 0 0 0 0 0 0 0 0 0 0 0 0 0 0 0 0 -6 0 0 0 0 0 0 0 0 0 0 0 0 0 0 0 0
0 0 0 0 0 0 0 0 -1 -8 0 -6 -3 -4 0 0 0 0 0 0 0 -4 0 0 0 0 0 -4 0 0 0 0 -7 -12 0 0 0 -6 0 0 0 0 0 0 0
0 0 0 0 0 0 0 0 -3 -2 -2 -1 0 -4 -1 -7 -20 -12 -4 -4 -4 0 -4 -5 -12 -4 -11 -9 -8 -1 -16 -5 -2 -7 0 0 0 0 0 0 0 0 0 0 0
0 0 0 0 0 0 0 -1 -4 -5 0 0 0 -7 -4 -5 -30 -16 -3 -3 -3 -4 -7 -3 0 0 0 0 0 0 0 -7 0 0 -3 0 0 0 0 0 0 0 0 0 0
0 0 0 0 0 0 0 -26 -2 0 0 0 0 -3 -5 -7 -3 -7 -4 -3 0 -8 -4 -2 -1 0 0 0 0 0 0 0 0 -6 -3 -2 0 0 0 0 0 0 -2 0 0
0 0 0 0 0 0 -53 -15 -5 0 0 0 -1 -2 -3 -4 -7 -3 -5 -3 -1 -3 -5 -4 -2 0 0 0 0 0 -3 -4 -1 0 0 0 0 -3 0 0 0 0 0 0 0
0 -3 0 0 0 -11 -3 -1 0 0 0 -2 0 -3 -1 -1 -10 -3 -2 -8 -36 -2 -2 -9 -9 0 0 0 0 -6 0 -7 -5 -6 -1 -1 -1 0 0 0 0 0 -1 -15 -19
0 0 0 0 0 -8 -1 -1 0 0 -3 -3 -1 -3 -3 -6 -2 -2 -1 -7 -14 -1 -1 -5 -4 -1 0 0 0 0 0 0 0 0 0 -1 0 0 -11 -7 -3 -27 -18 0 0
0 0 -1 0 0 0 0 0 -1 -3 0 -1 -2 -2 -2 -2 -2 -2 -3 -12 -4 0 0 0 0 -1 -2 0 0 0 -3 -4 -3 0 0 -3 -6 -3 -3 -1 -5 0 0 0 0
0 -1 0 0 -4 0 0 0 0 -3 -3 -1 -2 -17 -2 -1 -4 -3 -13 0 -8 -3 0 0 -2 -2 -3 -2 0 -2 -4 -1 0 0 0 0 0 0 -14 -4 0 0 0 0 0
-1 0 0 0 0 0 0 -1 -1 -2 0 0 -2 -4 -5 -1 -1 -2 0 -1 -2 -3 -2 -3 -1 -1 -2 -3 0 0 0 0 0 0 0 -1 -4 -14 0 0 0 0 0 0 0
0 -1 0 0 0 0 -5 0 -1 -1 -1 -1 -4 0 -1 -2 -17 -9 -7 -1 -2 0 0 -6 -1 0 0 -2 -1 0 -3 -3 -14 -11 -18 0 0 0 0 0 0 0 0 0 0
Wind_Speed
34 34 34 34 33 33 32 31 30 29 29 28 28 27 28 29 31 17 11 7 11 11 15 11 12 13 21 31 37 38 44 50 50 47 44 41 36 33 30 33 33 24 26 27 18
34 34 35 35 34 34 33 31 30 29 28 28 27 27 28 29 29 11 3 4 7 12 10 5 5 6 18 30 36 39 43 48 44 44 44 38 40 40 25 32 39 36 34 32 29
35 35 36 36 35 35 34 33 31 29 28 27 27 27 27 27 22 15 15 6 8 8 4 3 10 3 20 31 38 37 44 41 44 42 34 28 28 25 31 40 40 40 41 35 36
36 36 37 37 37 36 35 34 32 31 28 27 27 27 27 21 18 15 13 10 9 6 6 5 8 10 30 33 36 38 40 40 41 36 27 32 32 33 32 36 34 37 37 36 34
37 37 37 38 37 37 36 35 34 32 30 27 26 26 24 14 9 13 11 11 10 8 8 8 7 3 31 33 35 36 37 37 38 37 25 29 36 37 39 31 29 31 32 38 36
38 39 38 39 38 37 37 36 35 33 30 25 24 25 18 19 14 11 9 10 10 9 8 14 3 26 29 31 34 35 38 36 31 36 31 29 28 29 31 27 28 26 25 23 29
39 39 39 39 38 38 37 36 33 32 24 16 19 19 21 7 17 14 7 6 8 9 5 13 28 28 27 29 32 33 29 32 39 25 31 28 33 33 28 20 27 19 18 18 22
38 31 32 37 32 37 35 36 30 27 7 9 11 15 16 22 16 5 3 4 7 6 6 25 23 27 29 29 24 31 32 32 30 27 25 23 33 27 25 19 23 25 26 25 22
27 30 31 28 25 36 36 37 33 26 10 8 10 8 12 14 16 8 2 3 5 5 9 21 24 28 29 29 28 31 30 30 32 13 14 16 28 24 12 13 17 20 22 25 27
20 23 29 31 33 34 33 26 17 15 13 9 6 12 5 5 10 7 5 8 12 6 5 10 14 24 30 32 28 29 24 26 30 7 16 23 24 26 26 22 20 20 19 21 23
21 21 27 31 34 34 32 17 15 13 6 7 8 12 16 11 12 12 7 8 13 11 6 13 17 19 24 31 32 34 29 26 20 16 22 26 28 30 29 28 29 27 27 25 22
23 26 25 29 27 27 18 10 16 24 22 5 10 4 4 12 9 6 4 7 9 9 6 18 10 28 28 29 28 28 30 30 30 28 28 28 32 34 32 31 29 28 26 27 25
19 18 25 31 26 9 9 8 14 22 16 17 5 5 3 3 6 5 8 6 3 8 23 6 5 7 23 27 29 31 32 34 35 30 27 29 36 33 30 26 24 23 22 22 25
28 29 37 35 22 20 12 16 16 17 19 11 12 12 9 7 4 8 9 5 3 3 14 28 29 30 12 22 27 28 27 30 30 30 32 30 36 34 31 26 22 19 19 17 17
28 31 35 28 16 18 20 18 19 14 21 11 14 13 10 10 15 6 6 4 1 3 10 20 22 26 28 24 23 21 26 25 28 33 35 35 31 35 23 17 17 8 13 17 20
28 27 32 16 14 9 14 17 14 15 18 12 14 11 9 5 12 10 6 5 7 11 29 19 23 25 23 22 23 24 27 33 35 25 37 22 11 31 24 16 11 11 17 20 24
31 27 22 11 16 22 21 14 15 16 13 16 16 10 7 8 6 8 5 5 9 16 18 23 24 26 31 33 29 30 23 32 34 22 26 19 22 16 19 16 15 16 18 20 24
34 27 12 7 10 15 17 13 15 19 20 16 17 17 15 9 7 6 11 13 9 12 29 27 31 22 24 34 29 27 27 25 28 32 35 33 26 26 31 16 15 18 22 25 27
33 20 13 11 9 15 15 14 16 19 19 23 24 13 12 10 15 14 21 22 21 18 20 27 28 25 20 20 22 21 24 24 30 32 35 32 33 22 15 16 18 19 20 22 21
29 19 6 15 11 14 11 8 21 18 20 21 18 21 19 15 17 15 14 17 21 13 14 20 31 22 21 26 25 29 29 30 25 27 28 24 24 21 20 24 24 26 24 25 28
19 17 15 13 11 10 8 15 13 19 20 19 22 24 24 25 21 22 21 19 14 11 12 15 20 24 29 25 24 28 21 21 23 20 26 30 23 15 29 28 26 27 25 24 29
18 18 15 15 11 8 10 16 18 21 19 20 21 21 22 27 29 33 30 18 14 14 13 14 20 31 35 18 26 29 25 22 19 22 22 25 24 25 20 26 31 29 41 34 35
21 19 14 13 17 23 12 17 19 16 19 19 18 23 27 23 27 25 24 18 12 13 15 15 19 28 28 24 10 21 25 24 23 23 27 29 26 29 32 37 38 33 37 35 37
20 21 14 15 16 20 24 22 18 16 18 21 23 24 25 27 21 22 25 20 9 13 13 18 20 21 30 26 19 31 30 29 25 26 26 16 26 36 37 37 39 41 38 39 41
17 20 20 19 20 22 22 22 20 20 20 22 19 20 23 22 25 24 23 22 24 13 16 14 22 28 35 37 36 38 37 37 37 38 13 31 35 38 39 40 38 40 42 46 47
21 22 27 27 19 22 19 18 21 20 19 19 21 25 25 23 26 30 27 25 22 17 15 14 22 27 34 35 35 36 37 37 37 32 39 37 36 34 37 41 44 48 51 50 55
23 24 24 27 20 16 20 19 18 19 21 19 22 24 25 28 25 26 24 23 17 19 18 20 20 23 28 28 32 32 30 30 23 27 27 32 35 37 42 46 48 52 52 50 49
Wind_Direction
345 344 343 343 339 338 336 328 323 319 313 314 314 314 312 313 312 336 336 351 4 353 344 346 328 303 272 256 248 244 245 245 245 246 249 254 255 259 264 265 261 284 267 277 328
344 342 342 342 340 339 336 329 321 318 316 315 316 317 315 316 318 329 291 18 2 350 360 43 20 319 270 253 247 242 243 245 249 252 256 257 257 268 263 262 257 271 275 278 291
340 338 339 339 338 337 334 327 321 320 317 318 317 316 318 320 337 353 17 80 20 14 77 116 206 357 272 248 242 243 245 248 250 255 264 272 262 271 263 257 263 266 269 274 275
338 337 335 332 333 332 331 328 321 315 317 318 318 315 311 330 340 3 26 38 19 56 93 85 169 155 210 244 242 244 247 251 252 263 270 264 267 271 270 270 275 273 274 273 275
332 331 331 329 331 331 327 320 318 311 311 318 319 316 321 335 334 354 25 41 49 65 107 119 127 97 211 226 237 246 247 251 256 262 279 273 266 269 271 283 288 283 279 274 275
332 328 329 325 325 326 321 313 311 307 311 320 320 315 329 318 343 12 26 52 76 94 104 164 285 249 236 235 230 232 239 252 264 263 272 275 275 272 275 284 285 286 287 285 282
333 322 321 321 323 316 304 300 287 287 329 344 333 329 315 310 323 341 28 66 91 102 87 175 238 259 253 240 243 234 257 255 250 271 269 276 273 272 280 282 281 288 290 290 294
314 296 296 306 292 303 295 296 278 265 7 8 360 342 328 301 313 328 41 80 115 82 118 255 268 253 241 248 255 234 246 260 262 267 272 274 271 284 283 271 280 280 288 290 291
295 297 295 291 283 298 296 296 284 307 7 27 16 23 349 328 313 325 359 15 30 79 128 285 260 234 243 234 242 233 259 264 266 232 278 271 277 285 304 296 293 289 290 289 290
292 291 293 293 292 292 289 271 353 6 18 38 36 2 46 62 345 334 338 318 321 9 100 139 186 211 222 229 206 228 270 273 266 278 277 280 279 282 287 291 291 290 286 289 292
294 293 292 293 292 296 309 2 17 19 61 35 32 350 11 55 11 324 314 318 312 316 138 158 174 179 194 235 246 263 273 280 281 295 287 286 287 286 288 291 290 293 292 292 288
295 296 294 293 284 277 345 21 1 337 340 187 189 147 149 11 17 85 341 326 304 307 336 210 170 215 226 236 269 276 272 271 277 286 290 289 285 285 289 291 292 292 294 295 299
298 303 299 298 286 1 53 38 360 339 356 356 72 153 87 111 10 70 115 127 1 320 273 174 306 203 277 264 254 236 236 250 260 285 295 296 289 292 292 292 291 292 292 298 294
297 300 310 312 5 5 23 8 11 2 345 17 16 25 43 83 33 122 121 107 32 180 308 268 262 260 320 284 264 226 269 268 265 275 243 278 263 279 291 297 300 298 300 301 306
296 301 308 335 23 21 353 7 357 22 339 22 9 34 61 88 34 106 82 111 254 172 330 295 288 282 275 282 287 295 284 288 284 271 268 253 293 274 304 303 305 332 327 321 321
294 295 305 26 45 70 44 20 32 12 347 14 15 30 39 115 11 40 72 116 354 321 272 297 286 289 282 288 289 293 290 274 272 293 249 227 292 293 312 323 346 333 329 325 318
295 288 281 35 25 359 350 24 12 352 24 1 5 33 41 18 13 11 27 5 325 312 306 296 293 290 279 275 282 281 297 287 284 296 279 291 314 312 331 333 317 325 325 323 321
298 283 25 70 46 23 8 21 350 347 349 5 348 347 342 357 353 346 337 326 330 315 294 294 287 301 295 271 277 283 287 296 293 288 285 293 303 306 310 332 335 324 324 324 321
300 2 25 42 53 18 6 356 344 344 345 330 329 352 347 358 338 335 314 310 315 310 305 299 290 301 297 295 289 294 294 304 293 290 290 295 300 320 331 341 341 338 334 331 328
345 1 53 14 28 10 10 2 336 351 341 332 339 330 334 338 330 330 331 337 321 310 314 309 289 305 295 291 293 284 292 289 297 297 296 304 314 324 335 331 334 332 335 334 330
0 3 18 26 27 18 11 356 356 351 339 338 326 320 317 312 317 315 320 331 345 346 332 304 301 292 293 291 293 298 293 297 302 300 300 299 310 313 330 324 326 326 331 330 328
351 350 13 10 3 20 5 349 345 338 339 335 330 324 322 312 300 291 300 322 337 339 332 331 314 287 277 301 294 289 292 298 300 304 307 306 310 320 323 328 320 324 314 325 328
336 337 18 23 349 330 359 350 344 346 340 338 334 320 313 318 314 308 312 331 340 333 328 330 316 296 293 294 283 292 295 297 299 304 301 305 314 308 311 301 311 325 324 327 327
337 334 354 1 356 339 330 335 345 352 341 334 325 321 315 310 318 315 308 324 346 329 335 324 308 297 283 294 302 272 280 287 301 300 308 311 314 285 293 314 318 322 329 327 325
336 331 334 335 340 335 336 331 332 332 338 333 335 334 328 325 318 316 318 316 310 325 321 318 302 293 280 276 279 274 274 276 277 276 294 300 263 281 306 315 324 328 327 322 322
329 325 309 312 335 334 340 343 333 337 338 334 327 324 322 320 315 307 315 314 313 319 318 318 303 296 282 276 275 276 275 274 257 294 272 269 276 309 316 320 320 321 320 324 316
327 315 310 304 328 343 343 342 341 341 333 334 328 321 320 316 322 318 317 316 309 305 310 307 305 300 288 283 279 280 280 282 309 296 294 283 296 311 313 315 319 318 302 295 292